DateTimeUTC,F1_A11,F1_S11,BsB_S11,BsG_S11,BsR_S11,BbsB_S11,BbsG_S11,BbsR_S11,BaB_A11,BaG_A11,BaR_A11,Tu_S11,T_S11,Uu_S11,U_S11,P_S11,T1_A11
2021-10-23T03:00:00Z,00000200,21000000,,,,,,,-000.39,-000.05,-000.02,17.3,24.4,,00.0,0643.7,31.0
2021-10-23T03:01:00Z,00000200,21000000,,,,,,,0000.20,0000.01,-000.01,17.3,24.4,,00.0,0643.7,31.0
2021-10-23T03:02:00Z,00000200,21000000,,,,,,,-000.34,-000.31,-000.20,17.3,24.4,,00.0,0643.7,31.0
2021-10-23T03:03:00Z,00000200,61000000,,,,,,,-000.12,0000.14,-000.08,17.3,24.4,,00.0,0643.7,31.0
2021-10-23T03:04:00Z,00000200,41000000,0000.84,0000.39,0000.21,-000.32,0000.42,-000.11,0000.35,-000.12,-000.23,17.7,24.3,,00.0,0644.5,31.0
2021-10-23T03:05:00Z,00000200,01000000,0000.80,0000.27,-000.16,-000.32,0000.09,-000.25,0000.18,0000.19,0000.84,17.7,24.3,,00.0,0644.5,31.0
2021-10-23T03:06:00Z,00000200,01000000,0001.08,0000.03,-000.07,-000.34,-000.02,0000.08,-000.01,0000.25,-000.52,17.8,24.3,,00.0,0644.6,31.0
2021-10-23T03:07:00Z,00000200,01000000,-000.14,0000.22,0000.26,0000.37,0000.17,-000.01,-000.13,0000.20,0000.23,17.9,24.4,,00.0,0644.6,31.0
2021-10-23T03:08:00Z,00000200,01000000,0000.81,0000.10,0000.28,0000.21,-000.05,0000.10,-000.20,-000.21,0000.00,17.9,24.4,,00.0,0644.5,31.0
2021-10-23T03:09:00Z,00000200,01000000,0001.16,0000.14,-000.00,0000.62,0000.06,0000.19,0000.70,0000.32,0000.77,17.9,24.4,,00.0,0644.5,31.1
2021-10-23T03:10:00Z,00000200,01000000,0000.81,0000.04,0000.25,0000.29,0000.16,0000.18,-000.12,0000.07,-000.44,17.8,24.4,,00.0,0644.5,31.0
2021-10-23T03:11:00Z,00000200,01000000,-000.09,0000.64,0000.17,-000.58,-000.16,-000.16,0000.35,-000.27,0000.00,17.7,24.3,,00.0,0644.5,31.0
2021-10-23T03:12:00Z,00000200,01000000,0000.48,0000.13,0000.14,0000.27,0000.37,0000.28,-000.10,0000.45,0000.15,17.7,24.3,,00.0,0644.5,31.0
2021-10-23T03:13:00Z,00000200,01000000,0000.36,0000.24,0000.12,-000.54,-000.06,0000.23,0000.32,-000.12,-000.06,17.7,24.3,,00.0,0644.5,31.0
2021-10-23T03:14:00Z,00000200,01000000,0000.81,0000.25,0000.30,0000.02,0000.01,0000.31,0000.21,0000.47,0000.69,17.7,24.3,,00.0,0644.5,31.0
2021-10-23T03:15:00Z,00000200,01000000,0000.35,0000.51,0000.33,-000.27,-000.03,0000.24,0000.56,0000.43,0000.17,17.7,24.3,,00.0,0644.5,31.0
2021-10-23T03:16:00Z,00000200,01000000,0000.90,0000.19,0000.08,0000.33,0000.28,-000.04,0000.21,0000.25,-000.02,17.7,24.3,,00.0,0644.5,31.0
2021-10-23T03:17:00Z,00000200,01000000,0000.51,0000.37,0000.53,0000.08,0000.25,0000.09,0000.08,-000.02,0000.26,17.8,24.3,,00.0,0644.5,31.0
2021-10-23T03:18:00Z,00000200,01000000,-000.00,0000.20,0000.39,-000.19,0000.29,0000.01,0000.40,0000.45,0000.26,17.8,24.3,,00.0,0644.4,31.0
2021-10-23T03:19:00Z,00000200,01000000,0000.21,0000.04,0000.08,0000.66,0000.14,-000.00,-000.21,-000.21,-000.32,17.8,24.3,,00.0,0644.5,31.0
2021-10-23T03:20:00Z,00000200,01000000,0000.69,0000.14,0000.22,-000.14,-000.04,0000.37,-000.04,-000.26,0000.10,17.8,24.3,,00.0,0644.5,31.0
2021-10-23T03:21:00Z,00000200,01000000,0000.09,0000.12,-000.11,-000.28,0000.23,0000.17,0000.07,0000.50,-000.28,17.8,24.3,,00.0,0644.4,31.0
2021-10-23T03:22:00Z,00000200,01000000,-000.04,0000.33,0000.11,0000.30,0000.29,0000.25,0000.17,0000.17,0000.59,17.8,24.3,,00.0,0644.4,31.0
2021-10-23T03:23:00Z,00000200,01000000,0001.03,0000.31,0000.37,-000.93,0000.19,0000.21,-000.21,-000.59,-000.17,17.7,24.3,,00.0,0644.4,31.0
2021-10-23T03:24:00Z,00000200,01000000,0000.45,0000.47,0000.39,-000.48,0000.32,0000.41,0000.10,-000.05,0000.04,17.6,24.2,,00.0,0644.4,30.9
2021-10-23T03:25:00Z,00000200,01000000,0000.57,0000.70,0000.15,-000.25,0000.45,0000.04,0000.13,0000.19,-000.05,17.4,24.1,,00.0,0644.4,30.9
2021-10-23T03:26:00Z,00000200,01000000,0000.11,0000.33,0000.18,-000.51,0000.15,0000.01,0000.24,0000.48,0000.21,17.3,24.0,,00.0,0644.4,30.9
2021-10-23T03:27:00Z,00000200,01000000,0000.11,0000.21,0000.27,-000.17,0000.56,-000.29,0000.21,0000.45,0000.09,17.2,24.0,,00.0,0644.4,30.9
2021-10-23T03:28:00Z,00000200,01000000,0000.03,0000.56,0000.34,0000.30,0000.51,0000.42,0000.42,-000.12,0000.07,17.2,24.0,,00.0,0644.3,30.9
2021-10-23T03:29:00Z,00000200,01000000,0000.81,0000.32,0000.21,-000.50,0000.12,-000.07,0000.41,0000.94,0000.35,17.3,24.0,,00.0,0644.4,30.9
2021-10-23T03:30:00Z,00000200,01000000,0000.87,0000.58,0000.16,-000.21,0000.10,0000.01,0000.09,-000.81,0000.57,17.3,24.0,,00.0,0644.4,30.9
2021-10-23T03:31:00Z,00000200,01000000,0000.10,0000.33,0000.26,0000.28,-000.24,-000.19,0000.61,0000.73,-000.02,17.3,24.0,,00.0,0644.4,30.9
2021-10-23T03:32:00Z,00000200,01000000,-000.10,0000.32,0000.31,0000.05,-000.01,-000.11,-000.15,0000.31,0000.29,17.4,24.0,,00.0,0644.4,31.0
2021-10-23T03:33:00Z,00000200,01000000,0000.18,0000.21,0000.05,-000.09,0000.36,-000.07,0000.41,0000.04,-000.20,17.4,24.0,,00.0,0644.4,31.0
2021-10-23T03:34:00Z,00000200,01000000,0001.08,0000.49,0000.25,-000.10,0000.09,0000.39,0000.35,0000.30,0000.01,17.4,24.0,,00.0,0644.4,30.9
2021-10-23T03:35:00Z,00000200,01000000,0000.82,0000.37,0000.18,-000.17,0000.31,-000.26,-000.25,0000.30,0000.35,17.5,24.0,,00.0,0644.3,31.0
2021-10-23T03:36:00Z,00000200,01000000,0000.28,0000.20,0000.14,0000.25,0000.27,-000.18,0000.71,0000.31,0000.53,17.5,24.1,,00.0,0644.4,31.0
2021-10-23T03:37:00Z,00000200,01000000,0000.78,0000.38,0000.04,0000.75,-000.15,0000.08,-000.34,-000.42,-000.40,17.5,24.1,,00.0,0644.4,31.0
2021-10-23T03:38:00Z,00000200,01000000,0000.48,0000.53,-000.10,-000.24,-000.04,0000.14,0000.21,0000.29,0000.24,17.6,24.1,,00.0,0644.3,31.0
2021-10-23T03:39:00Z,00000200,01000000,0000.17,0000.18,0000.13,0000.19,-000.15,0000.02,0000.07,-000.05,-000.09,17.6,24.1,,00.0,0644.3,31.0
2021-10-23T03:40:00Z,00000200,01000000,0000.36,0000.29,0000.16,0000.25,0000.05,0000.36,0000.17,-000.15,0000.25,17.6,24.1,,00.0,0644.3,31.0
2021-10-23T03:41:00Z,00000200,01000000,0000.76,0000.30,-000.07,0000.32,-000.11,0000.29,0000.14,0000.26,-000.11,17.6,24.1,,00.0,0644.4,31.0
2021-10-23T03:42:00Z,00000200,01000000,0000.56,0000.28,0000.18,0000.45,0000.12,0000.03,0000.33,0000.45,0000.49,17.6,24.1,,00.0,0644.4,31.0
2021-10-23T03:43:00Z,00000200,01000000,-000.25,0000.43,-000.04,-000.00,0000.10,-000.13,0000.31,0000.66,0000.04,17.7,24.1,,00.0,0644.3,31.0
2021-10-23T03:44:00Z,00000200,01000000,0000.43,0000.25,0000.20,0000.08,0000.42,0000.23,0000.01,-000.13,0000.64,17.7,24.1,,00.0,0644.3,31.0
2021-10-23T03:45:00Z,00000200,01000000,0000.18,0000.19,0000.26,0000.62,0000.23,0000.30,0000.16,0000.32,-000.36,17.7,24.1,,00.0,0644.3,31.0
2021-10-23T03:46:00Z,00000200,01000000,0000.52,0000.37,0000.18,-000.06,0000.08,0000.16,-000.22,-000.50,-000.21,17.7,24.1,,00.0,0644.4,31.0
2021-10-23T03:47:00Z,00000200,01000000,0000.66,0000.61,0000.43,-000.10,0000.07,-000.07,0000.35,0000.29,-000.01,17.7,24.1,,00.0,0644.4,31.0
2021-10-23T03:48:00Z,00000200,01000000,0000.53,0000.40,-000.06,0000.62,0000.12,-000.13,0000.27,0000.30,0000.40,17.7,24.1,,00.0,0644.3,31.0
2021-10-23T03:49:00Z,00000200,01000000,0000.50,0000.51,-000.20,0000.20,0000.34,0000.08,-000.09,0000.02,0000.18,17.7,24.1,,00.0,0644.4,31.0
2021-10-23T03:50:00Z,00000200,01000000,0000.43,0000.50,0000.07,0000.26,0000.14,-000.19,-000.36,-000.11,0000.08,17.7,24.1,,00.0,0644.4,31.0
2021-10-23T03:51:00Z,00000200,01000000,0000.16,0000.19,0000.15,-000.16,0000.44,0000.06,0000.55,0000.14,-000.38,17.7,24.1,,00.0,0644.4,31.0
2021-10-23T03:52:00Z,00000200,01000000,0000.52,0000.37,0000.33,-000.36,0000.26,0000.03,0000.34,0000.42,0000.16,17.7,24.1,,00.0,0644.4,31.0
2021-10-23T03:53:00Z,00000200,01000000,-000.17,0000.44,0000.25,0000.87,0000.17,0000.14,0000.06,-000.00,0000.27,17.8,24.1,,00.0,0644.4,31.0
2021-10-23T03:54:00Z,00000200,01000000,0000.27,0000.20,0000.21,0000.11,0000.27,-000.03,0000.24,0000.28,0000.16,17.8,24.1,,00.0,0644.5,31.0
2021-10-23T03:55:00Z,00000200,01000000,0000.14,0000.32,0000.22,0000.03,0000.42,0000.18,-000.11,-000.03,-000.19,17.8,24.1,,00.0,0644.5,31.0
2021-10-23T03:56:00Z,00000200,01000000,0000.68,0000.34,0000.34,0000.13,0000.10,0000.44,0000.21,-000.07,0000.33,17.8,24.1,,00.0,0644.5,31.0
2021-10-23T03:57:00Z,00000200,41000000,,,,,,,0000.38,0000.79,0000.39,17.8,24.2,,00.0,0644.4,31.0
2021-10-23T03:58:00Z,00000200,61000000,,,,,,,-000.03,-000.17,-000.19,17.5,24.2,,00.0,0643.6,31.0
2021-10-23T03:59:00Z,00000200,21000000,,,,,,,-000.56,-000.73,-000.16,17.5,24.3,,00.0,0643.5,31.0
